Location: Luz Observatory
(34.5000°N, 117.2833°W)
Time: 03:59:46
(UTC-07:00)

Hubble Space Telescope - Visible Passes

Search period start: 19 October 2017 00:00
Search period end: 29 October 2017 00:00
Orbit: 537 x 541 km, 28.5° (Epoch: 19 October)

Date Brightness Start Highest point End Pass type
(mag) Time Alt. Az. Time Alt. Az. Time Alt. Az.
19 Oct 3.0 19:10:59 10° S 19:12:45 12° SSE 19:14:05 11° SE visible
20 Oct 2.8 19:00:02 10° SSW 19:02:28 15° SSE 19:04:35 11° SE visible
20 Oct 3.6 20:39:31 10° SW 20:39:57 12° SW 20:39:57 12° SW visible
21 Oct 2.7 18:49:19 10° SSW 18:52:11 18° SSE 18:55:02 10° ESE visible
21 Oct 3.2 20:29:13 10° WSW 20:30:24 17° SW 20:30:24 17° SW visible
22 Oct 2.5 18:38:45 10° SW 18:41:55 21° SSE 18:45:05 10° ESE visible
22 Oct 2.8 20:18:56 10° WSW 20:20:49 23° SW 20:20:49 23° SW visible
23 Oct 2.4 18:28:16 10° SW 18:31:39 24° SSE 18:35:02 10° ESE visible
23 Oct 2.4 20:08:41 10° WSW 20:11:13 28° SW 20:11:13 28° SW visible
24 Oct 2.0 19:58:27 10° WSW 20:01:36 33° SSW 20:01:36 33° SSW visible
25 Oct 1.8 19:48:15 10° WSW 19:52:00 34° S 19:52:00 34° S visible
26 Oct 1.9 19:38:03 10° WSW 19:41:46 32° S 19:42:25 31° SSE visible
27 Oct 2.1 19:27:53 10° WSW 19:31:31 30° S 19:32:52 24° SSE visible
28 Oct 2.4 19:17:45 10° WSW 19:21:17 27° SSW 19:23:22 18° SSE visible
